Falconia — H3QI — position and weather

sailwx.info

Track history (hours):
 
Tides and Currents Weather Stations Pressure Air Temp Water Temp Dewpoint Dewpoint Depression Visibility Wind Speed Wind Dir Waves Ship Positions

Falconia

Last reported at 2015-Jul-08 12:26 UTC. Time now 2015-Aug-05 08:27 UTC.
Position N 37°46' E 123°04'.
Warning: this ship's position is 27 days out of date.

Length 88 m; draft 4.1 m.

Type: Cargo ship. MMSI: 353620000.

Date/timePositionNaut miles runAvg speedWind from/ knotsBaromVisibWave heightAir tempDewpointWater temp
2015-Jul-08 12:26N 37°46' E 123°04'4 4.1
2015-Jul-08 11:33N 37°46' E 123°00'5 4.6
2015-Jul-08 10:29N 37°48' E 122°54'5 4.8
2015-Jul-08 09:33N 37°51' E 122°50'5 4.9
2015-Jul-08 08:33N 37°53' E 122°44'5 4.8
2015-Jul-08 07:33N 37°55' E 122°39'5 4.7
2015-Jul-08 06:33N 37°57' E 122°33'4 4.2
2015-Jul-08 05:33N 37°58' E 122°28'4 3.7
2015-Jul-08 04:33N 37°60' E 122°24'4 3.6
2015-Jul-08 03:33N 38°01' E 122°20'3 3.5
2015-Jul-08 02:33N 38°03' E 122°16'4 3.6
2015-Jul-08 01:32N 38°05' E 122°12'4 4.0
2015-Jul-08 00:33N 38°06' E 122°07'4 4.1
2015-Jul-07 23:33N 38°08' E 122°03'4 3.9
2015-Jul-07 22:33N 38°09' E 121°58'1010.4
2015-Jul-07 21:33N 38°11' E 121°45'1311.3
2015-Jul-07 20:22N 38°17' E 121°30'1311.1
2015-Jul-07 19:09N 38°23' E 121°14'2111.6
2015-Jul-07 17:19N 38°34' E 120°51'1012.2
2015-Jul-07 16:29N 38°37' E 120°38'1112.2
2015-Jul-07 15:33N 38°38' E 120°24'1312.7
2015-Jul-07 14:33N 38°40' E 120°08'1212.4
2015-Jul-07 13:33N 38°41' E 119°52'1611.9
2015-Jul-07 12:11N 38°43' E 119°31'811.8
2015-Jul-07 11:30N 38°44' E 119°21'7210.3
2015-Jul-07 04:33N 38°58' E 117°51'6 5.9
2015-Jul-07 03:30N 39°03' E 117°46'0 0.0
2015-Jul-07 02:30N 39°03' E 117°46'0 0.0
2015-Jul-07 01:30N 39°03' E 117°46'0 0.0
2015-Jul-07 00:30N 39°03' E 117°46'0 0.0
2015-Jul-06 23:30N 39°03' E 117°46'0 0.0
2015-Jul-06 22:30N 39°03' E 117°46'0 0.0
2015-Jul-06 21:30N 39°03' E 117°46'0 0.0
2015-Jul-06 20:30N 39°03' E 117°46'0 0.0
2015-Jul-06 19:24N 39°03' E 117°46'0 0.0
2015-Jul-06 18:30N 39°03' E 117°46'0 0.0
2015-Jul-06 17:30N 39°03' E 117°46'0 0.0
2015-Jul-06 16:30N 39°03' E 117°46'0 0.0
2015-Jul-06 15:29N 39°03' E 117°46'0 0.0
2015-Jul-06 14:29N 39°03' E 117°46'0 0.0
2015-Jul-06 13:29N 39°03' E 117°46'0 0.0
2015-Jul-06 12:29N 39°03' E 117°46'0 0.0
2015-Jul-06 11:29N 39°03' E 117°46'0 0.0
2015-Jul-06 10:23N 39°03' E 117°46'0 0.0
2015-Jul-06 09:29N 39°03' E 117°46'0 0.0
2015-Jul-06 08:29N 39°03' E 117°46'0 0.0
2015-Jul-06 07:29N 39°03' E 117°46'0 0.3
2015-Jul-06 06:31N 39°03' E 117°46'9 8.5
2015-Jul-06 05:30N 38°57' E 117°55'5 0.8
2015-Jul-05 23:03N 38°58' E 118°02'0 0.0
2015-Jul-05 14:27N 38°58' E 118°02'0 0.0
2015-Jul-05 11:09N 38°58' E 118°02'0 0.0
2015-Jul-05 08:25N 38°58' E 118°01'18010.0
2015-Jul-04 14:27N 38°17' E 121°46'1112.5
2015-Jul-04 13:33N 38°12' E 121°59'3912.9
2015-Jul-04 10:33N 37°55' E 122°43'27511.7
2015-Jul-03 11:04N 33°38' E 124°44'1811.1
2015-Jul-03 09:29N 33°21' E 124°50'  
Track history (hours):
 
Tides and Currents Weather Stations Pressure Air Temp Water Temp Dewpoint Dewpoint Depression Visibility Wind Speed Wind Dir Waves Ship Positions

Falconia

Last reported at 2015-Jul-08 12:26 UTC. Time now 2015-Aug-05 08:27 UTC.
Position N 37°46' E 123°04'.
Warning: this ship's position is 27 days out of date.

Length 88 m; draft 4.1 m.

Type: Cargo ship. MMSI: 353620000.

Date/timePositionNaut miles runAvg speedWind from/ knotsBaromVisibWave heightAir tempDewpointWater temp
2015-Jul-08 12:26N 37°46' E 123°04'4 4.1
2015-Jul-08 11:33N 37°46' E 123°00'5 4.6
2015-Jul-08 10:29N 37°48' E 122°54'5 4.8
2015-Jul-08 09:33N 37°51' E 122°50'5 4.9
2015-Jul-08 08:33N 37°53' E 122°44'5 4.8
2015-Jul-08 07:33N 37°55' E 122°39'5 4.7
2015-Jul-08 06:33N 37°57' E 122°33'4 4.2
2015-Jul-08 05:33N 37°58' E 122°28'4 3.7
2015-Jul-08 04:33N 37°60' E 122°24'4 3.6
2015-Jul-08 03:33N 38°01' E 122°20'3 3.5
2015-Jul-08 02:33N 38°03' E 122°16'4 3.6
2015-Jul-08 01:32N 38°05' E 122°12'4 4.0
2015-Jul-08 00:33N 38°06' E 122°07'4 4.1
2015-Jul-07 23:33N 38°08' E 122°03'4 3.9
2015-Jul-07 22:33N 38°09' E 121°58'1010.4
2015-Jul-07 21:33N 38°11' E 121°45'1311.3
2015-Jul-07 20:22N 38°17' E 121°30'1311.1
2015-Jul-07 19:09N 38°23' E 121°14'2111.6
2015-Jul-07 17:19N 38°34' E 120°51'1012.2
2015-Jul-07 16:29N 38°37' E 120°38'1112.2
2015-Jul-07 15:33N 38°38' E 120°24'1312.7
2015-Jul-07 14:33N 38°40' E 120°08'1212.4
2015-Jul-07 13:33N 38°41' E 119°52'1611.9
2015-Jul-07 12:11N 38°43' E 119°31'811.8
2015-Jul-07 11:30N 38°44' E 119°21'7210.3
2015-Jul-07 04:33N 38°58' E 117°51'6 5.9
2015-Jul-07 03:30N 39°03' E 117°46'0 0.0
2015-Jul-07 02:30N 39°03' E 117°46'0 0.0
2015-Jul-07 01:30N 39°03' E 117°46'0 0.0
2015-Jul-07 00:30N 39°03' E 117°46'0 0.0
2015-Jul-06 23:30N 39°03' E 117°46'0 0.0
2015-Jul-06 22:30N 39°03' E 117°46'0 0.0
2015-Jul-06 21:30N 39°03' E 117°46'0 0.0
2015-Jul-06 20:30N 39°03' E 117°46'0 0.0
2015-Jul-06 19:24N 39°03' E 117°46'0 0.0
2015-Jul-06 18:30N 39°03' E 117°46'0 0.0
2015-Jul-06 17:30N 39°03' E 117°46'0 0.0
2015-Jul-06 16:30N 39°03' E 117°46'0 0.0
2015-Jul-06 15:29N 39°03' E 117°46'0 0.0
2015-Jul-06 14:29N 39°03' E 117°46'0 0.0
2015-Jul-06 13:29N 39°03' E 117°46'0 0.0
2015-Jul-06 12:29N 39°03' E 117°46'0 0.0
2015-Jul-06 11:29N 39°03' E 117°46'0 0.0
2015-Jul-06 10:23N 39°03' E 117°46'0 0.0
2015-Jul-06 09:29N 39°03' E 117°46'0 0.0
2015-Jul-06 08:29N 39°03' E 117°46'0 0.0
2015-Jul-06 07:29N 39°03' E 117°46'0 0.3
2015-Jul-06 06:31N 39°03' E 117°46'9 8.5
2015-Jul-06 05:30N 38°57' E 117°55'5 0.8
2015-Jul-05 23:03N 38°58' E 118°02'0 0.0
2015-Jul-05 14:27N 38°58' E 118°02'0 0.0
2015-Jul-05 11:09N 38°58' E 118°02'0 0.0
2015-Jul-05 08:25N 38°58' E 118°01'18010.0
2015-Jul-04 14:27N 38°17' E 121°46'1112.5
2015-Jul-04 13:33N 38°12' E 121°59'3912.9
2015-Jul-04 10:33N 37°55' E 122°43'27511.7
2015-Jul-03 11:04N 33°38' E 124°44'1811.1
2015-Jul-03 09:29N 33°21' E 124°50'  

Dump ship's entire track history